Time,TemperatureF,DewpointF,PressureIn,WindDirection,WindDirectionDegrees,WindSpeedMPH,WindSpeedGustMPH,Humidity,HourlyPrecipIn,Conditions,Clouds,dailyrainin,SolarRadiationWatts/m^2,SoftwareType,DateUTC
2013-08-14 01:34:00,78.4,37.6,29.93,SW,224,6.0,7.0,23,0.00,,,0.00,0.0,meteohub,2013-08-14 08:34:00,
2013-08-14 01:39:00,78.3,37.4,29.93,SW,224,4.0,7.0,23,0.00,,,0.00,0.0,meteohub,2013-08-14 08:39:00,
2013-08-14 01:44:00,78.3,38.5,29.93,SW,223,2.0,7.0,24,0.00,,,0.00,0.0,meteohub,2013-08-14 08:44:00,
2013-08-14 01:49:00,78.3,38.5,29.93,SW,224,4.0,8.0,24,0.00,,,0.00,0.0,meteohub,2013-08-14 08:49:00,
2013-08-14 01:54:00,78.1,38.3,29.93,SW,224,1.0,8.0,24,0.00,,,0.00,0.0,meteohub,2013-08-14 08:54:00,
2013-08-14 01:59:00,78.1,38.3,29.93,SW,224,2.0,8.0,24,0.00,,,0.00,0.0,meteohub,2013-08-14 08:59:00,
2013-08-14 02:04:00,77.7,38.1,29.93,SW,224,1.0,8.0,24,0.00,,,0.00,0.0,meteohub,2013-08-14 09:04:00,
2013-08-14 02:09:00,77.5,37.9,29.93,SW,224,1.0,8.0,24,0.00,,,0.00,0.0,meteohub,2013-08-14 09:09:00,
2013-08-14 02:14:00,77.4,37.8,29.93,SW,224,0.0,8.0,24,0.00,,,0.00,0.0,meteohub,2013-08-14 09:14:00,
2013-08-14 02:19:00,77.2,38.7,29.93,SW,224,0.0,8.0,25,0.00,,,0.00,0.0,meteohub,2013-08-14 09:19:00,
2013-08-14 02:24:00,76.8,38.3,29.93,SW,224,1.0,8.0,25,0.00,,,0.00,0.0,meteohub,2013-08-14 09:24:00,
2013-08-14 02:29:00,76.6,38.1,29.92,SW,224,5.0,8.0,25,0.00,,,0.00,0.0,meteohub,2013-08-14 09:29:00,
2013-08-14 02:34:00,76.5,39.0,29.92,SW,224,0.0,6.0,26,0.00,,,0.00,0.0,meteohub,2013-08-14 09:34:00,
2013-08-14 02:39:00,76.3,38.8,29.93,SW,224,1.0,6.0,26,0.00,,,0.00,0.0,meteohub,2013-08-14 09:39:00,
2013-08-14 02:44:00,76.3,38.8,29.93,SW,224,1.0,6.0,26,0.00,,,0.00,0.0,meteohub,2013-08-14 09:44:00,
2013-08-14 02:49:00,76.1,39.7,29.93,SW,224,0.0,6.0,27,0.00,,,0.00,0.0,meteohub,2013-08-14 09:49:00,
2013-08-14 02:54:00,75.9,39.6,29.93,SW,224,4.0,5.0,27,0.00,,,0.00,0.0,meteohub,2013-08-14 09:54:00,
2013-08-14 02:59:00,75.7,39.4,29.92,SW,224,1.0,5.0,27,0.00,,,0.00,0.0,meteohub,2013-08-14 09:59:00,
2013-08-14 03:04:00,75.7,39.4,29.93,SW,224,3.0,5.0,27,0.00,,,0.00,0.0,meteohub,2013-08-14 10:04:00,
2013-08-14 03:09:00,75.7,39.4,29.93,SW,224,0.0,5.0,27,0.00,,,0.00,0.0,meteohub,2013-08-14 10:09:00,
2013-08-14 03:14:00,75.9,39.6,29.92,SW,224,2.0,5.0,27,0.00,,,0.00,0.0,meteohub,2013-08-14 10:14:00,
2013-08-14 03:19:00,75.9,39.6,29.92,SW,224,2.0,7.0,27,0.00,,,0.00,0.0,meteohub,2013-08-14 10:19:00,
2013-08-14 03:24:00,76.1,39.7,29.92,SW,224,0.0,7.0,27,0.00,,,0.00,0.0,meteohub,2013-08-14 10:24:00,
2013-08-14 03:29:00,76.3,39.9,29.92,SW,224,1.0,7.0,27,0.00,,,0.00,0.0,meteohub,2013-08-14 10:29:00,
2013-08-14 03:34:00,76.3,40.8,29.92,SW,224,3.0,7.0,28,0.00,,,0.00,0.0,meteohub,2013-08-14 10:34:00,
2013-08-14 03:39:00,76.3,40.8,29.92,SW,225,1.0,7.0,28,0.00,,,0.00,0.0,meteohub,2013-08-14 10:39:00,
2013-08-14 03:44:00,76.3,41.7,29.93,SW,225,0.0,7.0,29,0.00,,,0.00,0.0,meteohub,2013-08-14 10:44:00,
2013-08-14 03:49:00,76.3,41.7,29.93,SW,225,1.0,7.0,29,0.00,,,0.00,0.0,meteohub,2013-08-14 10:49:00,
2013-08-14 03:54:00,76.1,41.5,29.93,SW,225,1.0,7.0,29,0.00,,,0.00,0.0,meteohub,2013-08-14 10:54:00,
2013-08-14 03:59:00,75.9,41.4,29.93,SW,225,5.0,7.0,29,0.00,,,0.00,0.0,meteohub,2013-08-14 10:59:00,
2013-08-14 04:04:00,75.9,42.3,29.93,SW,225,0.0,6.0,30,0.00,,,0.00,0.0,meteohub,2013-08-14 11:04:00,
2013-08-14 04:09:00,75.7,42.1,29.93,SW,225,0.0,6.0,30,0.00,,,0.00,0.0,meteohub,2013-08-14 11:09:00,
2013-08-14 04:14:00,75.6,41.9,29.93,SW,225,0.0,6.0,30,0.00,,,0.00,0.0,meteohub,2013-08-14 11:14:00,
2013-08-14 04:19:00,75.7,43.0,29.93,SW,227,7.0,7.0,31,0.00,,,0.00,0.0,meteohub,2013-08-14 11:19:00,
2013-08-14 04:24:00,75.7,43.0,29.93,SW,227,1.0,9.0,31,0.00,,,0.00,0.0,meteohub,2013-08-14 11:24:00,
2013-08-14 04:29:00,75.7,43.0,29.93,SW,227,3.0,9.0,31,0.00,,,0.00,0.0,meteohub,2013-08-14 11:29:00,
2013-08-14 04:35:00,75.6,43.7,29.93,SW,227,0.0,9.0,32,0.00,,,0.00,0.0,meteohub,2013-08-14 11:35:00,
2013-08-14 04:40:00,75.4,43.5,29.93,SW,227,1.0,9.0,32,0.00,,,0.00,0.0,meteohub,2013-08-14 11:40:00,
2013-08-14 04:45:00,75.2,43.3,29.93,SW,227,1.0,9.0,32,0.00,,,0.00,0.0,meteohub,2013-08-14 11:45:00,
2013-08-14 04:50:00,74.8,43.0,29.93,SW,227,0.0,5.0,32,0.00,,,0.00,0.0,meteohub,2013-08-14 11:50:00,
2013-08-14 04:55:00,74.7,42.8,29.93,SW,227,0.0,5.0,32,0.00,,,0.00,0.0,meteohub,2013-08-14 11:55:00,
2013-08-14 05:00:00,74.5,43.5,29.93,SW,227,0.0,5.0,33,0.00,,,0.00,0.0,meteohub,2013-08-14 12:00:00,
2013-08-14 05:05:00,74.3,43.3,29.93,SW,227,0.0,5.0,33,0.00,,,0.00,0.0,meteohub,2013-08-14 12:05:00,
2013-08-14 05:10:00,73.9,43.9,29.93,SW,227,0.0,5.0,34,0.00,,,0.00,0.0,meteohub,2013-08-14 12:10:00,
2013-08-14 05:15:00,73.6,43.5,29.93,SW,227,0.0,5.0,34,0.00,,,0.00,0.0,meteohub,2013-08-14 12:15:00,
2013-08-14 05:20:00,73.2,43.9,29.93,SW,227,0.0,0.0,35,0.00,,,0.00,0.0,meteohub,2013-08-14 12:20:00,
2013-08-14 05:25:00,72.9,43.5,29.93,SW,227,0.0,0.0,35,0.00,,,0.00,0.0,meteohub,2013-08-14 12:25:00,
2013-08-14 05:30:00,72.3,43.9,29.93,SW,227,0.0,0.0,36,0.00,,,0.00,0.0,meteohub,2013-08-14 12:30:00,
2013-08-14 05:35:00,72.0,43.5,29.93,SW,227,0.0,0.0,36,0.00,,,0.00,0.0,meteohub,2013-08-14 12:35:00,
2013-08-14 05:40:00,71.4,43.2,29.93,SW,227,0.0,2.0,36,0.00,,,0.00,0.0,meteohub,2013-08-14 12:40:00,
2013-08-14 05:45:00,71.2,43.0,29.93,SW,227,0.0,2.0,36,0.00,,,0.00,0.0,meteohub,2013-08-14 12:45:00,
2013-08-14 05:50:00,71.1,42.8,29.93,SW,227,1.0,2.0,36,0.00,,,0.00,0.0,meteohub,2013-08-14 12:50:00,
2013-08-14 05:55:00,71.1,42.8,29.93,SW,227,0.0,2.0,36,0.00,,,0.00,0.0,meteohub,2013-08-14 12:55:00,
2013-08-14 06:00:00,71.1,42.8,29.93,SW,227,0.0,2.0,36,0.00,,,0.00,0.0,meteohub,2013-08-14 13:00:00,
2013-08-14 06:05:00,70.9,44.1,29.94,SW,227,0.0,2.0,38,0.00,,,0.00,0.0,meteohub,2013-08-14 13:05:00,
2013-08-14 06:10:00,70.5,44.4,29.94,SW,227,0.0,2.0,39,0.00,,,0.00,0.0,meteohub,2013-08-14 13:10:00,
2013-08-14 06:15:00,70.3,43.5,29.94,SW,227,0.0,2.0,38,0.00,,,0.00,5.0,meteohub,2013-08-14 13:15:00,
2013-08-14 06:20:00,70.0,43.9,29.94,SW,227,0.0,2.0,39,0.00,,,0.00,7.0,meteohub,2013-08-14 13:20:00,
2013-08-14 06:25:00,69.4,44.1,29.94,SW,227,0.0,2.0,40,0.00,,,0.00,11.0,meteohub,2013-08-14 13:25:00,
2013-08-14 06:30:00,69.1,43.2,29.94,SW,227,0.0,0.0,39,0.00,,,0.00,12.0,meteohub,2013-08-14 13:30:00,
2013-08-14 06:35:00,68.7,42.1,29.94,SW,227,0.0,0.0,38,0.00,,,0.00,16.0,meteohub,2013-08-14 13:35:00,
2013-08-14 06:40:00,68.5,42.6,29.94,SW,227,0.0,0.0,39,0.00,,,0.00,18.0,meteohub,2013-08-14 13:40:00,
2013-08-14 06:45:00,68.4,42.4,29.94,SW,227,0.0,0.0,39,0.00,,,0.00,25.0,meteohub,2013-08-14 13:45:00,
2013-08-14 06:50:00,68.4,41.7,29.95,SW,227,0.0,0.0,38,0.00,,,0.00,33.0,meteohub,2013-08-14 13:50:00,
2013-08-14 06:55:00,68.4,41.7,29.95,SW,227,0.0,0.0,38,0.00,,,0.00,44.0,meteohub,2013-08-14 13:55:00,
2013-08-14 07:00:00,68.5,41.2,29.95,SW,226,0.0,0.0,37,0.00,,,0.00,58.0,meteohub,2013-08-14 14:00:00,
2013-08-14 07:05:00,69.1,41.0,29.95,SW,226,0.0,0.0,36,0.00,,,0.00,74.0,meteohub,2013-08-14 14:05:00,
2013-08-14 07:10:00,69.4,41.4,29.95,SW,227,0.0,0.0,36,0.00,,,0.00,91.0,meteohub,2013-08-14 14:10:00,
2013-08-14 07:15:00,69.6,42.3,29.95,SW,226,0.0,0.0,37,0.00,,,0.00,111.0,meteohub,2013-08-14 14:15:00,
2013-08-14 07:20:00,70.2,42.6,29.95,SW,227,0.0,0.0,37,0.00,,,0.00,130.0,meteohub,2013-08-14 14:20:00,
2013-08-14 07:25:00,70.9,42.6,29.95,SW,226,0.0,0.0,36,0.00,,,0.00,153.0,meteohub,2013-08-14 14:25:00,
2013-08-14 07:30:00,71.4,43.7,29.96,SW,227,0.0,0.0,37,0.00,,,0.00,172.0,meteohub,2013-08-14 14:30:00,
2013-08-14 07:36:00,72.1,44.4,29.96,SW,226,0.0,0.0,37,0.00,,,0.00,193.0,meteohub,2013-08-14 14:36:00,
2013-08-14 07:41:00,72.7,45.0,29.96,SW,227,0.0,0.0,37,0.00,,,0.00,209.0,meteohub,2013-08-14 14:41:00,
2013-08-14 07:46:00,73.2,46.0,29.96,SW,227,0.0,0.0,38,0.00,,,0.00,227.0,meteohub,2013-08-14 14:46:00,
2013-08-14 07:51:00,73.9,46.8,29.96,SW,227,0.0,0.0,38,0.00,,,0.00,244.0,meteohub,2013-08-14 14:51:00,
2013-08-14 07:56:00,74.7,49.5,29.96,SW,227,0.0,0.0,41,0.00,,,0.00,262.0,meteohub,2013-08-14 14:56:00,
2013-08-14 08:01:00,75.4,48.0,29.96,SW,227,0.0,0.0,38,0.00,,,0.00,279.0,meteohub,2013-08-14 15:01:00,
2013-08-14 08:06:00,76.1,47.1,29.96,SW,227,0.0,0.0,36,0.00,,,0.00,299.0,meteohub,2013-08-14 15:06:00,
2013-08-14 08:11:00,77.2,47.5,29.96,SW,227,0.0,0.0,35,0.00,,,0.00,316.0,meteohub,2013-08-14 15:11:00,
2013-08-14 08:16:00,77.7,50.0,29.96,SW,227,0.0,0.0,38,0.00,,,0.00,334.0,meteohub,2013-08-14 15:16:00,
2013-08-14 08:21:00,78.6,46.2,29.96,SW,227,0.0,0.0,32,0.00,,,0.00,350.0,meteohub,2013-08-14 15:21:00,
2013-08-14 08:26:00,79.3,46.0,29.96,SW,227,0.0,0.0,31,0.00,,,0.00,367.0,meteohub,2013-08-14 15:26:00,
2013-08-14 08:31:00,80.2,48.6,29.96,SW,226,0.0,0.0,33,0.00,,,0.00,387.0,meteohub,2013-08-14 15:31:00,
2013-08-14 08:36:00,81.0,48.4,29.96,SW,227,0.0,0.0,32,0.00,,,0.00,403.0,meteohub,2013-08-14 15:36:00,
2013-08-14 08:41:00,81.5,49.6,29.96,SW,227,0.0,0.0,33,0.00,,,0.00,422.0,meteohub,2013-08-14 15:41:00,
2013-08-14 08:46:00,82.2,47.7,29.96,SW,226,0.0,0.0,30,0.00,,,0.00,438.0,meteohub,2013-08-14 15:46:00,
2013-08-14 08:51:00,82.9,48.4,29.96,SW,227,0.0,0.0,30,0.00,,,0.00,455.0,meteohub,2013-08-14 15:51:00,
2013-08-14 08:56:00,83.5,47.8,29.96,SW,227,0.0,0.0,29,0.00,,,0.00,475.0,meteohub,2013-08-14 15:56:00,
2013-08-14 09:01:00,83.8,49.1,29.96,SW,226,0.0,0.0,30,0.00,,,0.00,489.0,meteohub,2013-08-14 16:01:00,
2013-08-14 09:06:00,84.0,48.4,29.96,SW,226,0.0,0.0,29,0.00,,,0.00,506.0,meteohub,2013-08-14 16:06:00,
2013-08-14 09:11:00,84.6,47.8,29.96,SW,226,0.0,4.0,28,0.00,,,0.00,524.0,meteohub,2013-08-14 16:11:00,
2013-08-14 09:16:00,84.7,48.9,29.96,SW,226,0.0,4.0,29,0.00,,,0.00,540.0,meteohub,2013-08-14 16:16:00,
2013-08-14 09:21:00,85.1,48.4,29.96,SW,226,0.0,4.0,28,0.00,,,0.00,555.0,meteohub,2013-08-14 16:21:00,
2013-08-14 09:28:00,85.5,49.6,29.96,SW,226,0.0,4.0,29,0.00,,,0.00,570.0,meteohub,2013-08-14 16:28:00,
2013-08-14 09:34:00,86.2,48.2,29.96,SW,226,0.0,1.0,27,0.00,,,0.00,598.0,meteohub,2013-08-14 16:34:00,
2013-08-14 09:39:00,86.5,49.6,29.96,SW,226,0.0,1.0,28,0.00,,,0.00,610.0,meteohub,2013-08-14 16:39:00,
2013-08-14 09:44:00,87.1,46.9,29.96,SW,226,0.0,1.0,25,0.00,,,0.00,628.0,meteohub,2013-08-14 16:44:00,
2013-08-14 09:56:00,87.4,47.3,29.96,SW,226,0.0,1.0,25,0.00,,,0.00,643.0,meteohub,2013-08-14 16:56:00,
2013-08-14 10:02:00,88.5,47.1,29.96,SW,226,0.0,0.0,24,0.00,,,0.00,680.0,meteohub,2013-08-14 17:02:00,
2013-08-14 10:07:00,88.7,45.0,29.96,SW,226,0.0,0.0,22,0.00,,,0.00,700.0,meteohub,2013-08-14 17:07:00,
2013-08-14 10:12:00,89.2,45.5,29.96,SW,226,0.0,2.0,22,0.00,,,0.00,712.0,meteohub,2013-08-14 17:12:00,
2013-08-14 10:17:00,90.1,46.2,29.95,SSW,202,0.0,2.0,22,0.00,,,0.00,726.0,meteohub,2013-08-14 17:17:00,
2013-08-14 10:22:00,90.7,47.8,29.95,SSW,202,1.0,2.0,23,0.00,,,0.00,740.0,meteohub,2013-08-14 17:22:00,
2013-08-14 10:27:00,91.0,48.0,29.95,SSW,202,0.0,2.0,23,0.00,,,0.00,754.0,meteohub,2013-08-14 17:27:00,
2013-08-14 10:32:00,91.0,44.4,29.95,SSW,202,0.0,4.0,20,0.00,,,0.00,766.0,meteohub,2013-08-14 17:32:00,
2013-08-14 10:38:00,91.4,44.8,29.95,SSW,202,0.0,4.0,20,0.00,,,0.00,779.0,meteohub,2013-08-14 17:38:00,
2013-08-14 10:43:00,91.9,46.4,29.95,SSW,202,0.0,4.0,21,0.00,,,0.00,791.0,meteohub,2013-08-14 17:43:00,
2013-08-14 10:48:00,92.1,41.0,29.95,SSW,202,0.0,4.0,17,0.00,,,0.00,805.0,meteohub,2013-08-14 17:48:00,
2013-08-14 10:53:00,92.8,45.9,29.95,SSW,202,0.0,5.0,20,0.00,,,0.00,816.0,meteohub,2013-08-14 17:53:00,
2013-08-14 10:58:00,93.7,42.3,29.95,SSW,202,0.0,5.0,17,0.00,,,0.00,828.0,meteohub,2013-08-14 17:58:00,
2013-08-14 11:03:00,93.7,42.3,29.95,SSW,202,0.0,5.0,17,0.00,,,0.00,837.0,meteohub,2013-08-14 18:03:00,
2013-08-14 11:08:00,93.9,44.1,29.94,SSW,202,0.0,5.0,18,0.00,,,0.00,849.0,meteohub,2013-08-14 18:08:00,
2013-08-14 11:13:00,94.1,46.9,29.94,SSW,202,0.0,5.0,20,0.00,,,0.00,856.0,meteohub,2013-08-14 18:13:00,
2013-08-14 11:20:00,94.6,46.0,29.94,SSW,202,0.0,0.0,19,0.00,,,0.00,863.0,meteohub,2013-08-14 18:20:00,
2013-08-14 11:26:00,95.2,41.9,29.94,SSW,202,2.0,0.0,16,0.00,,,0.00,882.0,meteohub,2013-08-14 18:26:00,
2013-08-14 11:31:00,94.8,43.2,29.94,SSW,202,0.0,0.0,17,0.00,,,0.00,889.0,meteohub,2013-08-14 18:31:00,
2013-08-14 11:37:00,94.8,41.7,29.94,SSW,202,0.0,5.0,16,0.00,,,0.00,902.0,meteohub,2013-08-14 18:37:00,
2013-08-14 11:42:00,95.4,42.1,29.93,SSW,202,0.0,5.0,16,0.00,,,0.00,911.0,meteohub,2013-08-14 18:42:00,
2013-08-14 11:47:00,95.7,38.8,29.93,SSW,202,0.0,5.0,14,0.00,,,0.00,918.0,meteohub,2013-08-14 18:47:00,
2013-08-14 11:53:00,96.3,39.4,29.93,South,191,4.0,4.0,14,0.00,,,0.00,923.0,meteohub,2013-08-14 18:53:00,
2013-08-14 11:58:00,97.2,40.1,29.92,SSE,149,2.0,3.0,14,0.00,,,0.00,932.0,meteohub,2013-08-14 18:58:00,
2013-08-14 12:03:00,97.5,43.7,29.92,SSE,148,1.0,3.0,16,0.00,,,0.00,939.0,meteohub,2013-08-14 19:03:00,
2013-08-14 12:08:00,97.5,34.2,29.92,SSE,148,0.0,3.0,11,0.00,,,0.00,946.0,meteohub,2013-08-14 19:08:00,
2013-08-14 12:13:00,98.1,36.9,29.92,SE,144,5.0,5.0,12,0.00,,,0.00,949.0,meteohub,2013-08-14 19:13:00,
2013-08-14 12:18:00,99.1,37.6,29.92,ESE,122,4.0,5.0,12,0.00,,,0.00,954.0,meteohub,2013-08-14 19:18:00,
2013-08-14 12:24:00,99.7,35.8,29.92,ESE,121,0.0,5.0,11,0.00,,,0.00,958.0,meteohub,2013-08-14 19:24:00,
2013-08-14 12:29:00,99.9,38.1,29.92,ESE,121,1.0,5.0,12,0.00,,,0.00,962.0,meteohub,2013-08-14 19:29:00,
2013-08-14 12:32:00,100.6,38.7,29.91,ESE,121,0.0,5.0,12,0.00,,,0.00,965.0,meteohub,2013-08-14 19:32:00,
2013-08-14 12:35:00,100.4,38.7,29.91,ESE,121,4.0,5.0,12,0.00,,,0.00,963.0,meteohub,2013-08-14 19:35:00,
2013-08-14 12:47:00,99.9,38.1,29.91,ENE,61,0.0,6.0,12,0.00,,,0.00,970.0,meteohub,2013-08-14 19:47:00,
2013-08-14 12:52:00,100.2,38.5,29.91,East,82,1.0,6.0,12,0.00,,,0.00,972.0,meteohub,2013-08-14 19:52:00,
2013-08-14 12:57:00,100.6,38.7,29.91,ENE,76,3.0,6.0,12,0.00,,,0.00,972.0,meteohub,2013-08-14 19:57:00,
2013-08-14 13:02:00,100.8,38.8,29.91,ENE,60,2.0,8.0,12,0.00,,,0.00,970.0,meteohub,2013-08-14 20:02:00,
2013-08-14 13:07:00,101.7,41.7,29.91,SE,138,10.0,10.0,13,0.00,,,0.00,974.0,meteohub,2013-08-14 20:07:00,
2013-08-14 13:12:00,101.5,37.2,29.91,SE,138,0.0,8.0,11,0.00,,,0.00,969.0,meteohub,2013-08-14 20:12:00,
2013-08-14 13:17:00,100.8,38.8,29.90,SE,146,4.0,8.0,12,0.00,,,0.00,970.0,meteohub,2013-08-14 20:17:00,
2013-08-14 13:22:00,100.6,38.7,29.90,SE,146,1.0,8.0,12,0.00,,,0.00,970.0,meteohub,2013-08-14 20:22:00,
2013-08-14 13:28:00,100.6,36.5,29.90,SW,226,4.0,8.0,11,0.00,,,0.00,967.0,meteohub,2013-08-14 20:28:00,
2013-08-14 13:33:00,100.8,34.3,29.90,SW,226,0.0,13.0,10,0.00,,,0.00,967.0,meteohub,2013-08-14 20:33:00,
2013-08-14 13:39:00,100.9,36.9,29.90,West,267,0.0,13.0,11,0.00,,,0.00,967.0,meteohub,2013-08-14 20:39:00,
2013-08-14 13:44:00,100.9,34.3,29.89,West,281,0.0,13.0,10,0.00,,,0.00,946.0,meteohub,2013-08-14 20:44:00,
2013-08-14 13:49:00,101.7,37.4,29.90,SE,125,0.0,13.0,11,0.00,,,0.00,958.0,meteohub,2013-08-14 20:49:00,
2013-08-14 13:54:00,102.0,37.6,29.89,SW,221,6.0,9.0,11,0.00,,,0.00,954.0,meteohub,2013-08-14 20:54:00,
2013-08-14 13:59:00,102.0,37.6,29.89,SW,226,9.0,9.0,11,0.00,,,0.00,953.0,meteohub,2013-08-14 20:59:00,
2013-08-14 14:05:00,101.8,37.4,29.89,South,188,7.0,9.0,11,0.00,,,0.00,947.0,meteohub,2013-08-14 21:05:00,
2013-08-14 14:10:00,102.0,39.9,29.89,South,185,3.0,9.0,12,0.00,,,0.00,940.0,meteohub,2013-08-14 21:10:00,
2013-08-14 14:15:00,102.9,36.0,29.89,South,185,0.0,11.0,10,0.00,,,0.00,937.0,meteohub,2013-08-14 21:15:00,
2013-08-14 14:20:00,102.7,38.1,29.89,SW,219,4.0,11.0,11,0.00,,,0.00,932.0,meteohub,2013-08-14 21:20:00,
2013-08-14 14:21:00,102.7,38.1,29.89,SSE,164,7.0,11.0,11,0.00,,,0.00,935.0,meteohub,2013-08-14 21:21:00,
2013-08-14 14:26:00,102.6,38.1,29.89,SSW,205,1.0,11.0,11,0.00,,,0.00,921.0,meteohub,2013-08-14 21:26:00,
2013-08-14 14:31:00,102.7,38.1,29.88,SSW,213,0.0,11.0,11,0.00,,,0.00,912.0,meteohub,2013-08-14 21:31:00,
2013-08-14 14:36:00,103.5,36.3,29.88,SSW,211,2.0,10.0,10,0.00,,,0.00,907.0,meteohub,2013-08-14 21:36:00,
2013-08-14 14:41:00,103.3,38.7,29.88,South,178,2.0,10.0,11,0.00,,,0.00,896.0,meteohub,2013-08-14 21:41:00,
2013-08-14 14:46:00,102.7,40.5,29.88,SSW,213,5.0,10.0,12,0.00,,,0.00,888.0,meteohub,2013-08-14 21:46:00,
2013-08-14 14:51:00,101.8,37.4,29.88,SW,219,7.0,10.0,11,0.00,,,0.00,879.0,meteohub,2013-08-14 21:51:00,
2013-08-14 14:56:00,101.7,39.6,29.88,SSW,210,7.0,20.0,12,0.00,,,0.00,868.0,meteohub,2013-08-14 21:56:00,
2013-08-14 15:01:00,101.5,37.2,29.88,SW,226,0.0,20.0,11,0.00,,,0.00,853.0,meteohub,2013-08-14 22:01:00,
2013-08-14 15:06:00,102.0,41.9,29.88,SSE,155,1.0,20.0,13,0.00,,,0.00,840.0,meteohub,2013-08-14 22:06:00,
2013-08-14 15:11:00,102.6,40.3,29.88,SSW,202,1.0,20.0,12,0.00,,,0.00,833.0,meteohub,2013-08-14 22:11:00,
2013-08-14 15:16:00,102.6,40.3,29.88,SW,228,6.0,20.0,12,0.00,,,0.00,826.0,meteohub,2013-08-14 22:16:00,
2013-08-14 15:21:00,102.0,41.9,29.88,SW,236,1.0,16.0,13,0.00,,,0.00,810.0,meteohub,2013-08-14 22:21:00,
2013-08-14 15:26:00,101.8,41.7,29.87,WSW,249,11.0,16.0,13,0.00,,,0.00,798.0,meteohub,2013-08-14 22:26:00,
2013-08-14 15:32:00,102.2,44.1,29.87,South,182,0.0,16.0,14,0.00,,,0.00,788.0,meteohub,2013-08-14 22:32:00,
2013-08-14 15:37:00,102.4,40.1,29.87,SW,233,5.0,16.0,12,0.00,,,0.00,775.0,meteohub,2013-08-14 22:37:00,
2013-08-14 15:42:00,102.4,42.3,29.87,SW,235,1.0,13.0,13,0.00,,,0.00,763.0,meteohub,2013-08-14 22:42:00,
2013-08-14 15:47:00,102.2,42.1,29.87,SW,235,4.0,13.0,13,0.00,,,0.00,751.0,meteohub,2013-08-14 22:47:00,
2013-08-14 15:52:00,102.6,42.3,29.86,SW,229,6.0,13.0,13,0.00,,,0.00,737.0,meteohub,2013-08-14 22:52:00,
2013-08-14 15:57:00,102.0,41.9,29.86,SSW,212,5.0,13.0,13,0.00,,,0.00,722.0,meteohub,2013-08-14 22:57:00,
2013-08-14 16:05:00,101.3,41.4,29.86,SW,231,6.0,20.0,13,0.00,,,0.00,712.0,meteohub,2013-08-14 23:05:00,
2013-08-14 16:10:00,100.9,43.0,29.86,SW,228,8.0,20.0,14,0.00,,,0.00,684.0,meteohub,2013-08-14 23:10:00,
2013-08-14 16:16:00,101.1,43.2,29.86,SW,224,1.0,20.0,14,0.00,,,0.00,673.0,meteohub,2013-08-14 23:16:00,
2013-08-14 16:21:00,100.9,43.0,29.86,SW,235,4.0,20.0,14,0.00,,,0.00,650.0,meteohub,2013-08-14 23:21:00,
2013-08-14 16:26:00,100.9,43.0,29.86,SW,219,0.0,14.0,14,0.00,,,0.00,635.0,meteohub,2013-08-14 23:26:00,
2013-08-14 16:31:00,100.9,43.0,29.86,SW,217,7.0,14.0,14,0.00,,,0.00,615.0,meteohub,2013-08-14 23:31:00,
2013-08-14 16:36:00,100.6,42.8,29.86,SSW,212,1.0,14.0,14,0.00,,,0.00,603.0,meteohub,2013-08-14 23:36:00,
2013-08-14 16:41:00,100.9,43.0,29.86,SW,229,1.0,14.0,14,0.00,,,0.00,585.0,meteohub,2013-08-14 23:41:00,
2013-08-14 16:46:00,100.8,42.8,29.85,SW,228,2.0,14.0,14,0.00,,,0.00,570.0,meteohub,2013-08-14 23:46:00,
2013-08-14 16:51:00,100.6,42.8,29.85,SW,233,2.0,14.0,14,0.00,,,0.00,552.0,meteohub,2013-08-14 23:51:00,
2013-08-14 16:56:00,100.6,44.6,29.85,SW,225,0.0,14.0,15,0.00,,,0.00,534.0,meteohub,2013-08-14 23:56:00,
2013-08-14 17:01:00,100.9,44.8,29.85,South,182,2.0,14.0,15,0.00,,,0.00,519.0,meteohub,2013-08-15 00:01:00,
2013-08-14 17:06:00,101.1,45.0,29.85,SSW,196,2.0,14.0,15,0.00,,,0.00,504.0,meteohub,2013-08-15 00:06:00,
2013-08-14 17:11:00,100.9,44.8,29.85,South,170,5.0,13.0,15,0.00,,,0.00,483.0,meteohub,2013-08-15 00:11:00,
2013-08-14 17:16:00,100.8,44.6,29.85,SW,227,5.0,13.0,15,0.00,,,0.00,468.0,meteohub,2013-08-15 00:16:00,
2013-08-14 17:21:00,100.2,44.2,29.85,SSW,210,6.0,13.0,15,0.00,,,0.00,452.0,meteohub,2013-08-15 00:21:00,
2013-08-14 17:26:00,99.9,45.7,29.85,SW,222,11.0,13.0,16,0.00,,,0.00,432.0,meteohub,2013-08-15 00:26:00,
2013-08-14 17:31:00,99.7,45.5,29.85,SSW,201,1.0,13.0,16,0.00,,,0.00,415.0,meteohub,2013-08-15 00:31:00,
2013-08-14 17:37:00,99.3,45.1,29.85,SW,223,1.0,14.0,16,0.00,,,0.00,397.0,meteohub,2013-08-15 00:37:00,
2013-08-14 17:42:00,99.1,45.1,29.85,SW,223,4.0,14.0,16,0.00,,,0.00,376.0,meteohub,2013-08-15 00:42:00,
2013-08-14 17:47:00,98.6,43.0,29.85,SW,220,6.0,14.0,15,0.00,,,0.00,362.0,meteohub,2013-08-15 00:47:00,
2013-08-14 17:51:00,98.2,42.6,29.85,SW,225,10.0,14.0,15,0.00,,,0.00,343.0,meteohub,2013-08-15 00:51:00,
2013-08-14 17:56:00,98.1,44.2,29.84,SSW,208,4.0,16.0,16,0.00,,,0.00,329.0,meteohub,2013-08-15 00:56:00,
2013-08-14 18:02:00,97.9,44.1,29.84,SW,225,2.0,16.0,16,0.00,,,0.00,311.0,meteohub,2013-08-15 01:02:00,
2013-08-14 18:07:00,97.9,44.1,29.85,SSW,208,4.0,16.0,16,0.00,,,0.00,294.0,meteohub,2013-08-15 01:07:00,
2013-08-14 18:12:00,97.5,43.7,29.84,SW,221,10.0,16.0,16,0.00,,,0.00,272.0,meteohub,2013-08-15 01:12:00,
2013-08-14 18:17:00,97.3,43.7,29.85,SSW,206,11.0,16.0,16,0.00,,,0.00,255.0,meteohub,2013-08-15 01:17:00,
2013-08-14 18:22:00,97.2,43.5,29.85,SW,215,5.0,14.0,16,0.00,,,0.00,234.0,meteohub,2013-08-15 01:22:00,
2013-08-14 18:27:00,97.0,43.3,29.85,SSW,199,3.0,14.0,16,0.00,,,0.00,211.0,meteohub,2013-08-15 01:27:00,
2013-08-14 18:32:00,96.6,44.6,29.85,SW,223,8.0,14.0,17,0.00,,,0.00,190.0,meteohub,2013-08-15 01:32:00,
2013-08-14 18:37:00,96.3,44.4,29.85,SW,225,6.0,14.0,17,0.00,,,0.00,167.0,meteohub,2013-08-15 01:37:00,
2013-08-14 18:42:00,95.7,45.5,29.86,SW,218,5.0,14.0,18,0.00,,,0.00,149.0,meteohub,2013-08-15 01:42:00,
2013-08-14 18:47:00,95.2,43.5,29.86,SW,223,8.0,14.0,17,0.00,,,0.00,128.0,meteohub,2013-08-15 01:47:00,
2013-08-14 18:52:00,94.8,43.2,29.86,SW,216,11.0,15.0,17,0.00,,,0.00,109.0,meteohub,2013-08-15 01:52:00,
2013-08-14 18:57:00,94.5,44.4,29.86,SW,221,2.0,15.0,18,0.00,,,0.00,90.0,meteohub,2013-08-15 01:57:00,
2013-08-14 19:02:00,93.9,44.1,29.86,SW,228,5.0,15.0,18,0.00,,,0.00,72.0,meteohub,2013-08-15 02:02:00,
2013-08-14 19:07:00,93.6,45.1,29.86,WSW,243,14.0,15.0,19,0.00,,,0.00,56.0,meteohub,2013-08-15 02:07:00,
2013-08-14 19:12:00,93.2,44.8,29.86,SW,223,5.0,15.0,19,0.00,,,0.00,44.0,meteohub,2013-08-15 02:12:00,
2013-08-14 19:17:00,92.7,45.7,29.86,SW,219,2.0,15.0,20,0.00,,,0.00,32.0,meteohub,2013-08-15 02:17:00,
2013-08-14 19:22:00,92.3,45.5,29.87,SW,224,4.0,15.0,20,0.00,,,0.00,21.0,meteohub,2013-08-15 02:22:00,
2013-08-14 19:27:00,91.9,43.7,29.87,SW,227,1.0,15.0,19,0.00,,,0.00,16.0,meteohub,2013-08-15 02:27:00,
2013-08-14 19:32:00,91.6,43.5,29.87,SW,229,6.0,15.0,19,0.00,,,0.00,11.0,meteohub,2013-08-15 02:32:00,
2013-08-14 19:37:00,91.2,43.2,29.87,SW,229,9.0,15.0,19,0.00,,,0.00,7.0,meteohub,2013-08-15 02:37:00,
2013-08-14 19:42:00,91.0,43.0,29.87,SW,229,7.0,15.0,19,0.00,,,0.00,5.0,meteohub,2013-08-15 02:42:00,
2013-08-14 19:47:00,90.5,42.6,29.87,WSW,243,5.0,15.0,19,0.00,,,0.00,0.0,meteohub,2013-08-15 02:47:00,
2013-08-14 19:52:00,90.0,42.3,29.87,WSW,253,2.0,15.0,19,0.00,,,0.00,0.0,meteohub,2013-08-15 02:52:00,
2013-08-14 19:57:00,89.2,41.5,29.87,WSW,237,2.0,12.0,19,0.00,,,0.00,0.0,meteohub,2013-08-15 02:57:00,
2013-08-14 20:02:00,88.9,41.4,29.87,WSW,240,2.0,12.0,19,0.00,,,0.00,0.0,meteohub,2013-08-15 03:02:00,
2013-08-14 20:07:00,88.5,41.0,29.88,WSW,241,8.0,12.0,19,0.00,,,0.00,0.0,meteohub,2013-08-15 03:07:00,
2013-08-14 20:12:00,88.2,39.4,29.88,SW,231,7.0,12.0,18,0.00,,,0.00,0.0,meteohub,2013-08-15 03:12:00,
2013-08-14 20:17:00,88.0,40.6,29.88,SW,235,7.0,12.0,19,0.00,,,0.00,0.0,meteohub,2013-08-15 03:17:00,
2013-08-14 20:22:00,87.6,40.3,29.88,SW,235,5.0,11.0,19,0.00,,,0.00,0.0,meteohub,2013-08-15 03:22:00,
2013-08-14 20:27:00,87.4,38.7,29.88,SW,225,4.0,11.0,18,0.00,,,0.00,0.0,meteohub,2013-08-15 03:27:00,
2013-08-14 20:32:00,87.4,40.1,29.88,SW,225,6.0,11.0,19,0.00,,,0.00,0.0,meteohub,2013-08-15 03:32:00,
2013-08-14 20:37:00,87.3,39.9,29.88,SW,229,8.0,11.0,19,0.00,,,0.00,0.0,meteohub,2013-08-15 03:37:00,
2013-08-14 20:42:00,87.1,38.5,29.88,SW,231,5.0,11.0,18,0.00,,,0.00,0.0,meteohub,2013-08-15 03:42:00,
2013-08-14 20:47:00,86.7,38.1,29.88,SW,228,5.0,11.0,18,0.00,,,0.00,0.0,meteohub,2013-08-15 03:47:00,
2013-08-14 20:52:00,86.5,37.9,29.89,SW,227,4.0,11.0,18,0.00,,,0.00,0.0,meteohub,2013-08-15 03:52:00,
2013-08-14 20:57:00,86.5,37.9,29.89,SW,229,5.0,11.0,18,0.00,,,0.00,0.0,meteohub,2013-08-15 03:57:00,
2013-08-14 21:01:00,86.4,37.9,29.89,SW,228,4.0,11.0,18,0.00,,,0.00,0.0,meteohub,2013-08-15 04:01:00,
2013-08-14 21:02:00,86.4,37.9,29.89,SW,228,2.0,11.0,18,0.00,,,0.00,0.0,meteohub,2013-08-15 04:02:00,
2013-08-14 21:07:00,86.2,39.0,29.89,SW,227,1.0,11.0,19,0.00,,,0.00,0.0,meteohub,2013-08-15 04:07:00,
2013-08-14 21:12:00,86.0,39.0,29.89,SW,227,5.0,9.0,19,0.00,,,0.00,0.0,meteohub,2013-08-15 04:12:00,
2013-08-14 21:17:00,85.8,38.8,29.90,SW,227,0.0,9.0,19,0.00,,,0.00,0.0,meteohub,2013-08-15 04:17:00,
2013-08-14 21:22:00,85.5,38.5,29.90,SW,227,0.0,9.0,19,0.00,,,0.00,0.0,meteohub,2013-08-15 04:22:00,
2013-08-14 21:28:00,84.9,38.1,29.90,SW,227,0.0,9.0,19,0.00,,,0.00,0.0,meteohub,2013-08-15 04:28:00,
2013-08-14 21:33:00,84.4,39.0,29.90,SW,227,0.0,4.0,20,0.00,,,0.00,0.0,meteohub,2013-08-15 04:33:00,
2013-08-14 21:38:00,83.7,37.0,29.90,SW,227,0.0,4.0,19,0.00,,,0.00,0.0,meteohub,2013-08-15 04:38:00,
2013-08-14 21:43:00,82.9,37.8,29.90,SW,227,0.0,4.0,20,0.00,,,0.00,0.0,meteohub,2013-08-15 04:43:00,
2013-08-14 21:48:00,82.4,37.2,29.90,SW,227,0.0,4.0,20,0.00,,,0.00,0.0,meteohub,2013-08-15 04:48:00,
2013-08-14 21:53:00,81.9,38.1,29.91,SW,227,0.0,4.0,21,0.00,,,0.00,0.0,meteohub,2013-08-15 04:53:00,
2013-08-14 21:58:00,81.5,37.8,29.91,SW,227,0.0,0.0,21,0.00,,,0.00,0.0,meteohub,2013-08-15 04:58:00,
2013-08-14 22:03:00,81.1,37.6,29.91,SW,227,0.0,0.0,21,0.00,,,0.00,0.0,meteohub,2013-08-15 05:03:00,
2013-08-14 22:08:00,80.8,36.0,29.91,SW,227,0.0,0.0,20,0.00,,,0.00,0.0,meteohub,2013-08-15 05:08:00,
2013-08-14 22:13:00,80.4,36.9,29.91,SW,227,0.0,0.0,21,0.00,,,0.00,0.0,meteohub,2013-08-15 05:13:00,
2013-08-14 22:18:00,80.1,35.4,29.91,SW,227,0.0,0.0,20,0.00,,,0.00,0.0,meteohub,2013-08-15 05:18:00,
2013-08-14 22:23:00,79.3,34.7,29.91,SW,227,0.0,0.0,20,0.00,,,0.00,0.0,meteohub,2013-08-15 05:23:00,
2013-08-14 22:28:00,79.0,35.8,29.91,SW,227,0.0,0.0,21,0.00,,,0.00,0.0,meteohub,2013-08-15 05:28:00,
2013-08-14 22:33:00,78.8,36.7,29.91,SW,227,0.0,0.0,22,0.00,,,0.00,0.0,meteohub,2013-08-15 05:33:00,
2013-08-14 22:38:00,78.6,37.8,29.91,SW,227,0.0,0.0,23,0.00,,,0.00,0.0,meteohub,2013-08-15 05:38:00,
2013-08-14 22:43:00,78.4,37.6,29.91,SW,227,0.0,4.0,23,0.00,,,0.00,0.0,meteohub,2013-08-15 05:43:00,
2013-08-14 22:48:00,78.4,37.6,29.91,SW,227,0.0,4.0,23,0.00,,,0.00,0.0,meteohub,2013-08-15 05:48:00,
2013-08-14 22:53:00,78.3,38.5,29.91,SW,227,0.0,4.0,24,0.00,,,0.00,0.0,meteohub,2013-08-15 05:53:00,
2013-08-14 22:58:00,78.1,37.2,29.91,SW,227,0.0,4.0,23,0.00,,,0.00,0.0,meteohub,2013-08-15 05:58:00,
2013-08-14 23:03:00,77.9,38.1,29.91,SW,227,0.0,0.0,24,0.00,,,0.00,0.0,meteohub,2013-08-15 06:03:00,
2013-08-14 23:08:00,77.5,39.0,29.91,SW,227,0.0,0.0,25,0.00,,,0.00,0.0,meteohub,2013-08-15 06:08:00,
2013-08-14 23:13:00,77.4,39.7,29.91,SW,227,0.0,0.0,26,0.00,,,0.00,0.0,meteohub,2013-08-15 06:13:00,
2013-08-14 23:18:00,77.2,39.6,29.91,SW,227,0.0,0.0,26,0.00,,,0.00,0.0,meteohub,2013-08-15 06:18:00,
2013-08-14 23:23:00,76.8,39.4,29.91,SW,227,0.0,0.0,26,0.00,,,0.00,0.0,meteohub,2013-08-15 06:23:00,
2013-08-14 23:28:00,76.5,39.9,29.91,SW,227,0.0,0.0,27,0.00,,,0.00,0.0,meteohub,2013-08-15 06:28:00,
2013-08-14 23:33:00,76.1,41.5,29.91,SW,227,0.0,0.0,29,0.00,,,0.00,0.0,meteohub,2013-08-15 06:33:00,
2013-08-14 23:38:00,75.7,41.2,29.92,SW,227,0.0,0.0,29,0.00,,,0.00,0.0,meteohub,2013-08-15 06:38:00,
2013-08-14 23:43:00,75.4,41.7,29.92,SW,227,0.0,0.0,30,0.00,,,0.00,0.0,meteohub,2013-08-15 06:43:00,
2013-08-14 23:48:00,75.0,40.6,29.92,SW,227,0.0,0.0,29,0.00,,,0.00,0.0,meteohub,2013-08-15 06:48:00,
2013-08-14 23:53:00,74.8,40.5,29.92,SW,227,0.0,0.0,29,0.00,,,0.00,0.0,meteohub,2013-08-15 06:53:00,
2013-08-14 23:58:00,74.7,41.2,29.92,SW,227,0.0,0.0,30,0.00,,,0.00,0.0,meteohub,2013-08-15 06:58:00,